This is the latest recevied weather packets stored in our database for station/object KC9DRE. If no packets are shown the sender has not sent any weather packets the latest 10 day(s).
| Time | Temp. | Humidity | Pressure | Rain* | Wind** | Luminosity | Snow |
|---|---|---|---|---|---|---|---|
| 1777416164 | 22.22° C | 72% | 1014.1 hPa | 0 mm | - | 77 W/m² | - |
| 1777415864 | 22.78° C | 68% | 1014 hPa | 0 mm | - | 86 W/m² | - |
| 1777415559 | 22.78° C | 69% | 1013.7 hPa | 0 mm | - | 95 W/m² | - |
| 1777415256 | 22.78° C | 69% | 1013.5 hPa | 0 mm | - | 109 W/m² | - |
| 1777414950 | 22.78° C | 66% | 1013.7 hPa | 0 mm | - | 118 W/m² | - |
| 1777414650 | 22.78° C | 67% | 1013.6 hPa | 0 mm | - | 130 W/m² | - |
| 1777414346 | 22.78° C | 65% | 1013.6 hPa | 0 mm | - | 139 W/m² | - |
| 1777414041 | 23.33° C | 67% | 1013.6 hPa | 0 mm | - | 131 W/m² | - |
| 1777413735 | 23.33° C | 65% | 1013.3 hPa | 0 mm | - | 129 W/m² | - |
| 1777413431 | 23.89° C | 64% | 1013.1 hPa | 0 mm | - | 141 W/m² | - |
| 1777413128 | 23.89° C | 64% | 1012.9 hPa | 0 mm | - | 181 W/m² | - |
| 1777412823 | 23.89° C | 67% | 1012.9 hPa | 0 mm | - | 234 W/m² | - |
| 1777412522 | 23.89° C | 63% | 1013.2 hPa | 0 mm | - | 196 W/m² | - |
| 1777412219 | 23.89° C | 64% | 1013.4 hPa | 0 mm | - | 279 W/m² | - |
| 1777411915 | 23.89° C | 66% | 1013.4 hPa | 0 mm | - | 271 W/m² | - |
| 1777411614 | 23.89° C | 63% | 1013.6 hPa | 0 mm | - | 251 W/m² | - |
| 1777411310 | 23.89° C | 64% | 1013.5 hPa | 0 mm | - | 231 W/m² | - |
| 1777411009 | 23.89° C | 62% | 1013.5 hPa | 0 mm | - | 239 W/m² | - |
| 1777410709 | 23.89° C | 64% | 1013.8 hPa | 0 mm | - | 241 W/m² | - |
| 1777410404 | 23.89° C | 63% | 1013.5 hPa | 0 mm | - | 249 W/m² | - |
| 1777410102 | 23.89° C | 65% | 1013.5 hPa | 0 mm | - | 247 W/m² | - |
| 1777409798 | 23.89° C | 62% | 1013.7 hPa | 0 mm | - | 247 W/m² | - |
| 1777409494 | 23.89° C | 63% | 1014 hPa | 0 mm | - | 257 W/m² | - |
| 1777409189 | 23.89° C | 61% | 1014 hPa | 0 mm | - | 275 W/m² | - |
| 1777408885 | 23.89° C | 60% | 1014.3 hPa | 0 mm | - | 281 W/m² | - |
* Rain latest hour (hover to see other rain measurements)
** Current wind speed in m/s (hover to see current wind gust speed)